Wind_Speed
26 25 25 25 25 26 26 26 26 26 26 26 26 26 26 26 26 26 26 26 25 25 25 25 25 25 24 24 25 25 26 26 27 27 28 29 30 30 30 31 32 32 33
27 27 27 27 27 27 28 27 28 28 28 28 28 27 27 27 27 26 26 26 26 26 26 26 26 26 26 26 26 27 27 27 28 29 29 30 31 31 32 32 33 34 35
29 29 29 29 29 29 29 29 29 29 30 29 29 28 28 28 28 28 28 27 27 27 27 28 28 28 28 28 28 29 29 30 30 31 32 32 33 33 34 35 35 36 37
30 30 30 31 31 30 30 30 30 31 31 30 30 30 30 29 29 29 29 29 29 30 30 30 30 30 30 30 30 31 31 32 32 33 34 34 35 36 36 37 38 38 38
31 31 31 32 32 32 31 32 31 31 31 31 31 32 31 31 30 30 31 31 32 32 32 32 32 32 33 33 33 33 34 34 35 35 36 36 37 37 38 39 39 40 41
32 32 32 33 33 33 33 32 32 32 33 33 33 33 33 32 32 32 33 33 34 34 34 35 35 35 36 36 36 36 37 37 37 37 38 38 39 39 39 41 41 42 43
33 33 34 34 34 34 34 33 34 34 34 34 34 34 34 34 34 35 35 35 35 36 36 36 37 37 38 38 38 39 39 39 39 39 40 40 41 41 42 43 43 44 44
34 33 35 35 35 35 35 35 36 36 35 35 35 35 35 36 36 37 37 38 38 38 38 38 39 39 39 40 40 40 40 40 41 41 42 42 43 43 43 44 44 45 45
34 34 35 35 36 35 36 36 36 36 36 36 36 36 36 37 38 38 39 39 39 40 40 40 40 41 41 41 42 42 42 43 43 43 44 45 45 46 46 46 46 46 46
36 36 36 37 37 37 37 37 37 37 37 37 37 37 38 39 40 40 41 41 41 42 42 42 43 43 43 44 44 44 45 45 46 46 47 47 48 48 48 48 48 48 48
38 38 38 38 38 38 39 39 39 38 39 39 39 39 40 40 41 42 41 42 43 43 43 44 44 45 45 46 47 47 47 47 48 48 49 49 50 50 50 50 50 50 51
38 39 40 40 39 40 40 40 40 40 40 41 41 41 42 42 43 43 43 44 44 44 44 45 46 47 48 48 49 49 50 50 50 51 51 51 51 52 52 52 52 52 52
39 40 40 41 41 41 42 41 40 40 41 42 42 43 44 44 45 45 45 45 45 45 46 47 48 49 50 51 51 52 53 53 54 54 53 53 53 53 54 54 54 54 54
40 41 42 42 42 42 42 41 41 42 43 43 44 45 45 45 46 46 47 47 47 47 48 49 50 51 52 53 54 54 55 56 56 56 56 55 56 56 56 56 56 56 55
43 43 43 42 42 42 42 43 43 44 45 45 45 45 46 47 48 49 49 50 50 50 50 51 52 53 55 55 56 56 57 57 58 58 58 58 58 58 58 58 57 57 57
44 44 43 43 43 43 44 43 44 45 46 46 46 47 47 48 49 50 51 52 52 53 53 53 55 56 57 57 58 58 59 59 59 59 59 59 60 60 60 59 59 59 59
45 44 44 44 44 44 44 45 45 46 47 48 48 49 49 49 50 51 52 54 55 56 57 56 57 58 59 59 60 61 61 61 61 61 61 61 61 61 60 60 60 59 59
46 46 46 45 46 46 46 47 47 48 49 50 50 51 51 52 53 54 55 56 58 59 60 59 58 60 61 62 63 63 63 63 63 63 62 62 62 61 61 60 60 60 60
45 46 47 47 47 48 49 49 49 50 51 51 52 53 54 55 56 57 58 59 60 61 62 63 62 62 63 63 63 64 64 64 64 64 64 63 63 62 62 61 61 60 60
45 47 48 48 49 50 50 51 51 52 53 53 54 55 55 56 57 58 60 61 62 62 63 64 64 63 63 64 65 65 65 65 65 64 64 64 63 63 63 62 61 61 60
46 47 48 49 50 51 51 52 52 53 54 54 55 55 56 57 59 60 61 62 62 63 64 65 65 65 65 65 66 66 65 65 64 64 64 64 63 62 62 62 62 61 60
47 48 49 50 50 51 52 53 53 54 54 55 56 56 57 59 60 61 62 63 64 65 65 66 66 66 66 66 66 65 65 64 63 63 63 62 62 62 62 62 61 60 58
47 48 49 50 51 51 52 53 53 54 55 55 56 57 59 60 61 62 63 64 65 66 67 68 68 67 66 65 66 65 64 64 63 62 62 61 61 60 60 60 59 57 55
47 48 49 50 51 51 52 53 54 54 55 56 57 58 60 61 62 63 64 65 66 66 67 68 68 66 66 65 65 64 63 63 62 61 61 59 58 58 57 57 56 54 53
48 49 49 50 51 52 53 54 55 56 56 57 58 59 61 62 63 64 65 66 66 66 66 66 65 65 64 64 63 63 62 62 60 58 58 58 56 55 54 53 52 51 50
48 48 49 50 51 53 54 55 56 57 57 57 58 59 60 62 62 63 64 64 64 63 63 62 62 62 61 61 60 60 60 59 58 57 55 55 54 53 51 49 49 48 47
Wind_Direction
263 266 269 272 275 277 279 280 281 283 284 284 284 284 285 285 285 285 285 286 287 288 289 290 290 291 291 290 290 289 288 286 285 283 282 281 280 279 277 275 274 273 273
264 266 269 272 274 276 278 279 280 282 283 284 283 282 283 284 283 284 285 286 286 287 289 289 289 289 289 289 289 289 288 287 285 284 283 282 281 280 278 278 276 274 273
264 266 268 272 274 276 278 279 279 281 283 284 282 281 282 283 284 284 284 284 284 286 287 288 288 288 288 288 288 288 288 287 286 285 284 283 282 280 279 278 277 276 274
264 266 268 271 274 276 278 279 280 281 282 282 282 280 281 282 284 283 283 283 283 285 286 287 287 286 287 287 287 288 287 287 287 285 285 284 282 281 280 278 277 277 275
263 266 268 270 273 276 278 279 280 281 281 281 281 280 280 281 283 282 282 283 283 284 285 285 286 285 286 287 286 287 287 287 286 286 285 284 283 282 280 279 278 277 276
263 265 269 271 273 276 277 278 279 281 281 281 281 280 280 280 281 282 282 282 283 284 284 285 285 285 286 286 286 286 287 286 286 286 285 284 283 282 280 280 279 277 276
263 266 268 271 273 275 276 277 278 280 280 280 280 280 279 279 280 282 282 283 283 284 284 284 284 284 285 286 286 286 286 286 286 285 285 284 284 283 282 281 280 278 276
264 265 269 270 273 275 276 277 278 279 279 279 279 280 279 279 280 282 282 283 283 283 283 284 284 284 285 286 286 286 286 286 285 285 286 286 285 284 283 281 280 278 276
265 266 268 270 274 276 277 278 279 279 280 279 279 279 279 279 281 282 283 283 282 283 283 284 284 285 285 286 286 286 286 285 285 286 286 286 286 285 283 282 280 278 276
266 268 271 274 276 278 279 278 279 280 280 280 281 281 281 281 280 281 282 283 283 283 283 284 284 285 285 285 286 286 286 285 285 286 286 286 286 285 283 281 279 277 275
268 271 273 276 278 278 279 279 279 279 279 279 280 281 282 282 282 282 283 283 283 283 282 283 284 284 285 285 285 285 285 285 285 286 286 286 285 284 283 282 280 277 276
270 272 273 276 277 279 280 280 279 279 279 279 280 281 282 283 283 283 283 282 282 283 283 283 284 284 285 286 285 285 285 285 286 286 286 286 285 284 283 282 280 278 276
272 273 274 275 277 279 279 279 279 278 279 280 281 282 282 282 283 283 282 281 281 282 283 284 284 285 285 285 286 286 286 286 286 286 286 285 284 284 283 282 280 279 278
272 273 274 276 277 278 277 278 279 279 279 280 281 282 282 282 282 282 282 282 281 281 282 283 284 285 285 285 286 286 286 286 286 286 285 285 284 283 282 281 280 279 278
273 274 275 276 276 277 278 278 278 279 280 281 281 281 281 281 282 282 281 282 282 282 283 284 285 286 286 286 287 287 286 286 286 286 285 284 283 283 282 281 280 279 278
274 275 275 276 277 278 279 279 280 280 281 282 281 281 281 281 281 282 283 283 284 284 285 285 286 286 286 286 286 287 287 286 286 285 284 283 283 282 282 281 280 279 279
274 275 276 277 278 278 278 279 280 281 282 282 282 282 282 282 282 283 284 284 285 285 286 286 286 286 286 286 286 287 286 286 286 285 284 284 283 282 282 281 280 280 279
275 276 277 277 277 278 278 280 280 281 282 283 283 283 283 283 284 284 285 285 286 287 287 287 286 286 286 286 286 286 286 286 285 284 284 283 283 282 282 281 280 279 279
276 276 277 277 277 278 279 281 281 281 282 283 283 283 283 284 284 285 285 286 287 287 287 287 287 286 286 286 285 285 285 285 285 284 283 283 282 282 281 281 280 279 279
278 278 278 278 278 279 280 280 281 281 282 282 283 284 284 284 284 285 286 286 287 287 288 288 287 287 286 285 285 285 285 285 284 284 283 282 281 281 281 280 280 280 280
279 280 280 279 279 279 280 280 281 282 282 283 284 284 285 285 285 286 286 287 287 288 288 288 288 288 287 286 286 285 284 284 283 283 281 281 281 280 280 280 280 280 279
280 281 281 281 281 281 281 282 282 282 283 283 284 284 285 286 286 287 288 288 288 288 288 289 288 288 288 287 286 285 284 283 282 282 281 280 280 280 280 279 280 279 278
281 281 282 282 283 283 282 283 283 283 284 284 285 285 286 286 287 288 288 288 289 289 289 289 289 288 287 287 286 285 284 283 283 282 281 280 279 279 279 279 279 278 277
282 283 283 283 283 283 283 284 284 285 285 286 286 286 287 287 288 288 288 289 289 289 289 289 289 289 288 287 286 285 284 283 283 282 282 281 280 279 279 278 278 277 275
283 284 284 284 284 284 284 284 285 285 286 286 287 288 288 289 289 289 289 290 290 290 290 290 290 289 288 287 286 285 284 283 283 282 281 281 280 279 278 277 276 275 273
284 285 285 285 285 285 285 285 286 286 287 287 288 289 289 290 290 290 291 291 291 291 290 290 290 289 288 287 285 284 284 283 283 282 281 280 279 279 277 276 275 273 272
Height
5828 5828 5829 5828 5828 5827 5827 5826 5825 5824 5823 5822 5821 5820 5819 5817 5816 5814 5813 5811 5810 5808 5807 5805 5804 5802 5801 5799 5798 5797 5795 5794 5793 5792 5791 5790 5789 5789 5788 5788 5787 5787 5787
5823 5823 5823 5823 5822 5822 5821 5820 5819 5818 5818 5816 5815 5814 5813 5811 5810 5809 5807 5806 5804 5803 5801 5800 5798 5797 5795 5794 5792 5791 5789 5788 5787 5785 5784 5783 5782 5782 5781 5780 5780 5779 5779
5816 5817 5817 5817 5816 5815 5815 5814 5813 5812 5811 5810 5809 5808 5807 5806 5804 5803 5801 5800 5798 5797 5796 5794 5793 5791 5789 5788 5786 5784 5783 5781 5780 5778 5777 5776 5775 5774 5773 5772 5772 5771 5771
5810 5810 5810 5810 5810 5809 5808 5808 5807 5806 5805 5804 5803 5802 5801 5799 5798 5797 5795 5794 5792 5791 5789 5788 5786 5784 5783 5781 5779 5778 5776 5774 5773 5771 5769 5768 5767 5765 5764 5764 5763 5762 5762
5803 5803 5803 5803 5803 5802 5802 5801 5800 5799 5798 5797 5796 5795 5794 5793 5791 5790 5788 5787 5785 5784 5782 5780 5779 5777 5775 5774 5772 5770 5768 5766 5765 5763 5761 5760 5758 5756 5755 5754 5753 5753 5752
5796 5796 5796 5796 5795 5795 5794 5793 5793 5792 5791 5790 5789 5788 5787 5786 5784 5783 5781 5780 5778 5776 5775 5773 5771 5769 5767 5766 5764 5762 5760 5758 5756 5754 5752 5750 5749 5747 5746 5744 5743 5742 5741
5788 5788 5789 5788 5788 5787 5787 5786 5785 5784 5783 5782 5781 5780 5779 5778 5776 5775 5773 5771 5770 5768 5766 5765 5763 5761 5759 5757 5755 5752 5750 5748 5746 5744 5742 5740 5739 5737 5735 5734 5733 5731 5730
5780 5781 5781 5780 5780 5779 5779 5778 5777 5776 5775 5774 5773 5772 5771 5770 5768 5766 5765 5763 5761 5759 5758 5756 5754 5751 5749 5747 5745 5743 5741 5738 5736 5734 5732 5730 5728 5726 5724 5723 5721 5720 5719
5772 5773 5772 5772 5772 5771 5771 5770 5769 5768 5767 5766 5765 5764 5762 5761 5760 5758 5756 5754 5752 5750 5748 5746 5744 5742 5740 5737 5735 5733 5730 5728 5726 5723 5721 5719 5716 5714 5712 5710 5709 5708 5706
5764 5764 5764 5764 5764 5763 5762 5761 5760 5759 5758 5757 5756 5754 5753 5752 5751 5749 5747 5745 5742 5740 5738 5736 5734 5731 5729 5727 5724 5722 5719 5717 5714 5712 5709 5707 5704 5702 5700 5698 5696 5695 5693
5756 5756 5756 5755 5755 5754 5753 5752 5751 5750 5749 5747 5746 5745 5743 5742 5740 5739 5738 5735 5732 5730 5727 5725 5722 5720 5717 5715 5713 5710 5707 5705 5702 5699 5697 5694 5691 5689 5687 5685 5683 5681 5680
5747 5747 5747 5746 5745 5744 5744 5743 5741 5740 5739 5738 5736 5735 5733 5731 5730 5728 5727 5724 5722 5719 5716 5713 5711 5708 5705 5703 5700 5697 5695 5692 5689 5686 5683 5680 5678 5675 5673 5671 5669 5667 5666
5738 5738 5737 5736 5735 5734 5733 5732 5731 5730 5729 5727 5726 5724 5722 5720 5718 5716 5714 5712 5711 5708 5705 5702 5698 5695 5692 5690 5687 5684 5681 5678 5675 5672 5669 5666 5664 5661 5659 5656 5654 5653 5651
5729 5728 5727 5726 5725 5724 5723 5722 5721 5719 5718 5716 5715 5713 5710 5708 5706 5703 5702 5700 5699 5697 5694 5690 5686 5682 5679 5676 5672 5669 5666 5663 5660 5657 5654 5651 5648 5646 5643 5641 5639 5637 5636
5719 5718 5717 5716 5715 5714 5713 5711 5710 5708 5707 5705 5703 5701 5698 5696 5693 5691 5688 5686 5685 5683 5682 5678 5673 5669 5665 5661 5657 5654 5651 5647 5644 5641 5638 5635 5632 5629 5627 5624 5623 5621 5619
5708 5707 5706 5705 5704 5703 5701 5700 5698 5697 5695 5693 5691 5689 5686 5683 5681 5678 5675 5672 5669 5667 5667 5665 5659 5655 5650 5646 5642 5638 5635 5631 5628 5624 5621 5618 5615 5612 5610 5608 5606 5604 5602
5697 5696 5695 5694 5692 5691 5690 5688 5686 5685 5683 5680 5678 5676 5673 5670 5667 5664 5661 5658 5655 5652 5650 5649 5645 5639 5635 5630 5626 5622 5618 5614 5611 5607 5604 5601 5598 5595 5592 5590 5588 5586 5584
5685 5684 5683 5682 5681 5679 5677 5676 5674 5672 5670 5667 5664 5662 5659 5656 5653 5650 5647 5643 5640 5636 5633 5631 5629 5623 5618 5613 5609 5605 5601 5597 5593 5590 5586 5583 5580 5577 5575 5572 5570 5568 5567
5674 5672 5671 5670 5668 5666 5665 5663 5661 5658 5656 5653 5650 5648 5645 5642 5639 5635 5631 5628 5624 5619 5615 5612 5611 5606 5601 5596 5591 5588 5583 5579 5575 5572 5568 5565 5562 5559 5556 5554 5551 5550 5548
5661 5659 5658 5656 5655 5653 5651 5649 5646 5644 5641 5639 5636 5633 5630 5626 5623 5619 5615 5611 5607 5602 5598 5593 5590 5587 5583 5578 5573 5569 5565 5561 5557 5553 5549 5546 5543 5540 5537 5535 5533 5531 5530
5648 5646 5645 5643 5641 5639 5637 5634 5632 5629 5627 5624 5621 5617 5614 5610 5606 5602 5598 5594 5589 5584 5580 5575 5571 5568 5564 5559 5554 5549 5546 5542 5539 5535 5531 5528 5525 5522 5519 5517 5514 5513 5511
5635 5633 5631 5629 5627 5624 5622 5619 5617 5614 5611 5609 5606 5602 5598 5594 5590 5585 5581 5576 5571 5566 5561 5556 5552 5548 5544 5539 5534 5529 5525 5522 5521 5518 5513 5510 5506 5504 5501 5498 5496 5494 5493
5622 5620 5617 5615 5612 5610 5607 5604 5601 5599 5596 5593 5589 5586 5582 5577 5573 5568 5563 5558 5553 5547 5542 5537 5532 5528 5524 5519 5514 5510 5506 5502 5500 5497 5493 5492 5488 5485 5482 5480 5478 5476 5475
5608 5606 5603 5601 5598 5595 5592 5589 5586 5583 5580 5577 5573 5569 5565 5561 5555 5550 5546 5541 5536 5530 5523 5517 5512 5508 5504 5499 5494 5490 5486 5483 5481 5478 5473 5472 5470 5467 5464 5462 5460 5458 5457
5595 5592 5589 5587 5584 5581 5577 5574 5570 5568 5564 5561 5557 5552 5547 5542 5537 5531 5527 5522 5518 5512 5505 5499 5493 5488 5484 5479 5474 5470 5467 5464 5462 5461 5456 5453 5452 5449 5447 5445 5443 5441 5441
5581 5578 5575 5572 5569 5566 5562 5558 5555 5552 5549 5545 5541 5535 5530 5524 5519 5513 5507 5502 5498 5493 5487 5482 5476 5470 5465 5461 5456 5451 5448 5444 5442 5442 5439 5435 5433 5431 5431 5430 5427 5426 5425